[[{"header":{"parameterUnit":"m.s-1","parameterCategory":1,"la1":30.2991,"la2":30.254,"lo1":-89.0895,"lo2":-89.0444,"dy":0.0017,"dx":0.0017,"nx":28,"ny":28,"refTime":"2024-02-06T09:00:00:Z","depth":0,"parameterNumber":2,"parameterNumberName":"U-component_of_WINDS"},"data":[0,0,0,0,0,0,0,0,0,0,0,0,0,0,0,0,0,0,0,0,0,0,0,0,0,0,0,0,0,0,0,0,0,0,0,0,0,0,0,0,0,0,0,0,0,0,0,0,0,0,0,0,0,0,0,0,0,0,1.8738,1.8738,0,1.8718,1.8717,1.8717,1.8663,1.8661,1.866,1.8659,1.8639,1.864,1.8641,0,0,0,0,0,0,0,0,0,0,0,0,0,1.8733,1.8733,1.8738,1.8738,1.8738,1.8718,1.8717,1.8717,1.8663,1.8661,1.866,1.8659,1.8639,1.864,1.8641,0,0,0,0,0,0,0,0,0,0,0,0,0,1.8726,1.8734,1.8738,1.8708,1.8705,1.8718,1.8717,1.8717,1.8663,1.8661,1.866,1.8658,1.8639,1.864,1.8641,1.8681,0,0,1.8643,1.8644,0,0,0,0,0,0,0,0,1.8727,1.8726,1.8713,1.871,1.8707,1.8691,1.8708,1.8705,1.8664,1.8679,1.8659,1.8657,1.8658,1.8657,1.8657,1.868,1.8679,1.8643,1.8644,1.8644,1.8645,0,0,0,0,0,0,0,1.8727,1.8727,1.873,1.8713,1.8709,1.8696,1.8694,1.8707,1.8679,1.8678,1.8674,1.8672,1.8656,1.8657,1.8656,1.8679,1.8643,1.8644,1.8645,1.8645,1.8734,1.8736,0,0,0,0,0,0,1.8732,1.8728,1.8731,1.8729,1.8713,1.8698,1.8695,1.8698,1.8678,1.8674,1.8673,1.8669,1.8656,1.8655,1.8656,1.8701,1.8644,1.8645,1.8646,1.8732,1.8735,1.8737,0,0,0,0,0,0,1.8732,1.8733,1.8732,1.8728,1.8726,1.87,1.8704,1.8698,1.8699,1.8675,1.867,1.8679,1.8655,1.8654,1.8675,1.87,1.8645,1.8646,1.873,1.8733,1.8736,1.8794,0,0,0,0,0,0,1.8732,1.8733,1.8747,1.8728,1.8727,1.8751,1.8705,1.8699,1.87,1.8695,1.8679,1.8675,1.8653,1.8674,1.8676,1.87,1.8647,1.8728,1.8732,1.8735,1.879,1.8798,1.8806,0,0,0,0,0,1.8732,1.8765,1.8748,1.8749,1.8744,1.8753,1.8752,1.8726,1.8702,1.8717,1.8702,1.8675,1.8697,1.8677,1.8678,1.8703,1.8726,1.873,1.8735,1.8786,1.8796,1.8805,0,0,0,0,0,0,1.8788,1.8762,1.8743,1.8771,1.8764,1.8743,1.8761,1.8738,1.8738,1.8733,1.8702,1.8699,1.8724,1.8716,1.8693,1.8741,1.8707,1.8712,1.8746,1.8756,1.8764,1.8765,1.8648,0,0,0,0,0,1.8803,1.8812,1.8789,1.8815,1.8813,1.8788,1.879,1.8771,1.8763,1.876,1.8747,1.8741,1.8746,1.8751,1.8754,1.8788,1.8784,1.8806,1.8814,1.8821,1.8826,1.8843,1.8853,1.875,1.875,1.875,0,0,1.8836,1.8822,1.883,1.8826,1.8819,1.8829,1.8786,1.8798,1.8805,1.8762,1.8781,1.8771,1.8762,1.879,1.8801,1.8784,1.8853,1.8826,1.8832,1.8833,1.8849,1.8858,1.8867,1.8753,1.8753,1.8752,0,0,1.8899,1.889,1.8911,1.8905,1.8894,1.8877,1.8883,1.8865,1.8857,1.8875,1.8843,1.8852,1.8862,1.8857,1.8856,1.8919,1.8894,1.8921,1.8963,1.8981,1.8989,1.8996,1.9018,1.9027,1.8926,1.8926,1.8926,0,1.8941,1.8954,1.8925,1.8939,1.8939,1.8901,1.8922,1.8918,1.8909,1.891,1.889,1.8903,1.8894,1.892,1.8935,1.8936,1.8941,1.8922,1.899,1.8997,1.9003,1.9024,1.9032,1.8929,1.8929,1.8928,1.8928,0,1.9005,1.9015,1.9033,1.9026,1.9028,1.9046,1.9021,1.9026,1.9007,1.8993,1.9012,1.9,1.9001,1.9006,1.8988,1.903,1.9019,1.8995,1.896,1.9016,1.9036,1.9043,1.8934,1.8932,1.8932,1.8931,0,0,1.9103,1.9079,1.9087,1.9083,1.9069,1.9076,1.9093,1.9093,1.9099,1.9095,1.9108,1.9118,1.9096,1.9095,1.9075,1.9091,1.9142,1.9065,1.9064,1.908,1.9188,1.9206,1.9216,1.9126,1.9127,1.9128,1.9189,0,1.9162,1.9189,1.9164,1.9196,1.9205,1.9169,1.9183,1.9177,1.9164,1.917,1.9156,1.9164,1.9134,1.9133,1.9147,1.9133,1.9163,1.9128,1.9138,1.9139,1.9141,1.9226,1.9245,1.9302,1.9196,1.9197,1.9198,0,1.9235,1.9234,1.9267,1.9251,1.9254,1.9267,1.9266,1.9272,1.9265,1.9254,1.9254,1.923,1.9246,1.9213,1.9234,1.9211,1.9214,1.9208,1.921,1.9209,1.9172,1.9228,1.932,1.9329,1.921,1.9209,1.9208,0,1.9303,1.931,1.933,1.9328,1.9311,1.9321,1.9314,1.9305,1.9307,1.9306,1.9307,1.9309,1.9309,1.9311,1.9289,1.9267,1.9314,1.9279,1.9307,1.9307,1.9318,1.9317,1.9412,1.932,1.932,1.932,1.932,0,1.9373,1.9394,1.9361,1.9373,1.9396,1.9368,1.9392,1.9381,1.9373,1.9384,1.9353,1.9364,1.9334,1.9342,1.9325,1.9346,1.9346,1.9339,1.9334,1.9341,1.9342,1.9342,1.9338,1.9322,1.9322,1.9321,1.9321,0,1.9452,1.943,1.945,1.9432,1.9428,1.9446,1.943,1.9442,1.9427,1.9441,1.9442,1.942,1.9427,1.9406,1.941,1.9398,1.9429,1.9418,1.9431,1.9428,1.9457,1.9454,1.9554,1.9566,1.9468,1.9469,1.947,0,1.9497,1.9513,1.9496,1.9501,1.9496,1.9503,1.9505,1.9479,1.9482,1.9475,1.9487,1.9492,1.9494,1.9508,1.9493,1.9496,1.9484,1.9519,1.9485,1.9492,1.9485,1.9484,1.9486,1.9526,1.9528,1.9529,1.9529,0,1.958,1.9569,1.9573,1.9573,1.9576,1.9575,1.9572,1.9578,1.955,1.9555,1.9562,1.9564,1.9569,1.9574,1.9574,1.9568,1.9544,1.9541,1.9547,1.9555,1.9562,1.9558,1.9451,1.9538,1.9537,1.9537,1.9536,1.9536,1.9644,1.9656,1.9646,1.9652,1.9647,1.9645,1.9654,1.9641,1.9647,1.9648,1.9632,1.9643,1.9635,1.9632,1.9629,1.9637,1.9621,1.9631,1.9633,1.9636,1.964,1.9561,1.9637,1.9637,1.9636,1.9636,1.9636,0,1.9725,1.9717,1.9722,1.9719,1.9724,1.9701,1.9697,1.9702,1.9712,1.9706,1.9709,1.9718,1.9723,1.9709,1.9712,1.9721,1.9711,1.9723,1.9722,1.9721,1.9655,1.9648,1.9732,1.9732,1.9732,1.9732,1.9732,1.9732,1.9767,1.9787,1.9775,1.9792,1.9784,1.9794,1.9793,1.9792,1.9787,1.9798,1.9802,1.9793,1.9784,1.9786,1.979,1.9786,1.9789,1.9805,1.9797,1.9735,1.9726,1.9717,1.9711,1.9806,1.9806,1.9862,1.9863,1.9863]},{"header":{"parameterUnit":"m.s-1","parameterCategory":1,"la1":30.2991,"la2":30.254,"lo1":-89.0895,"lo2":-89.0444,"dy":0.0017,"dx":0.0017,"nx":28,"ny":28,"refTime":"2024-02-06T09:00:00:Z","depth":0,"parameterNumber":3,"parameterNumberName":"V-component_of_WINDS"},"data":[0,0,0,0,0,0,0,0,0,0,0,0,0,0,0,0,0,0,0,0,0,0,0,0,0,0,0,0,0,0,0,0,0,0,0,0,0,0,0,0,0,0,0,0,0,0,0,0,0,0,0,0,0,0,0,0,0,0,-3.8696,-3.8698,0,-3.8895,-3.8897,-3.8899,-3.8896,-3.8894,-3.8891,-3.8889,-3.9097,-3.9105,-3.9113,0,0,0,0,0,0,0,0,0,0,0,0,0,-3.8318,-3.8325,-3.8695,-3.8698,-3.87,-3.8894,-3.8897,-3.89,-3.8897,-3.8894,-3.889,-3.8887,-3.9094,-3.9104,-3.9113,0,0,0,0,0,0,0,0,0,0,0,0,0,-3.8496,-3.8327,-3.8695,-3.8722,-3.8727,-3.8894,-3.8897,-3.8901,-3.8898,-3.8894,-3.889,-3.8886,-3.9091,-3.9103,-3.9115,-3.9269,0,0,-3.9151,-3.9157,0,0,0,0,0,0,0,0,-3.8486,-3.851,-3.8716,-3.8721,-3.8726,-3.8867,-3.884,-3.9024,-3.8899,-3.8833,-3.8889,-3.8884,-3.9024,-3.9041,-3.9087,-3.9279,-3.9288,-3.9152,-3.916,-3.9165,-3.9168,0,0,0,0,0,0,0,-3.8474,-3.8501,-3.8774,-3.8719,-3.8725,-3.8726,-3.8747,-3.8875,-3.8949,-3.8838,-3.8839,-3.8862,-3.9026,-3.9076,-3.9092,-3.9291,-3.9152,-3.9163,-3.917,-3.9175,-3.9622,-3.9627,0,0,0,0,0,0,-3.8455,-3.8491,-3.8768,-3.878,-3.8593,-3.8736,-3.876,-3.8826,-3.8947,-3.8962,-3.8865,-3.8861,-3.9057,-3.9078,-3.91,-3.9291,-3.9165,-3.9176,-3.9183,-3.9618,-3.9623,-3.9628,0,0,0,0,0,0,-3.8447,-3.848,-3.876,-3.8636,-3.8672,-3.8747,-3.8821,-3.8832,-3.8882,-3.8967,-3.8981,-3.8902,-3.9055,-3.9083,-3.9227,-3.9298,-3.9182,-3.9193,-3.9612,-3.9619,-3.9626,-3.9673,0,0,0,0,0,0,-3.8436,-3.8477,-3.8535,-3.8637,-3.8678,-3.8883,-3.8825,-3.8838,-3.8902,-3.8898,-3.9006,-3.902,-3.9054,-3.9209,-3.9239,-3.9312,-3.9202,-3.9606,-3.9615,-3.9624,-3.9666,-3.9681,-3.9694,0,0,0,0,0,-3.8423,-3.8541,-3.8538,-3.8571,-3.8752,-3.8887,-3.8911,-3.8946,-3.8907,-3.8968,-3.9023,-3.9016,-3.9285,-3.9224,-3.9258,-3.9336,-3.9602,-3.9613,-3.9623,-3.9659,-3.9678,-3.9693,0,0,0,0,0,0,-3.8446,-3.8554,-3.8553,-3.8707,-3.8788,-3.8886,-3.8963,-3.8964,-3.9059,-3.9052,-3.9093,-3.9118,-3.9263,-3.9313,-3.9244,-3.9493,-3.9439,-3.9457,-3.9455,-3.9473,-3.9487,-3.9473,-3.9212,0,0,0,0,0,-3.8469,-3.8567,-3.8657,-3.8785,-3.8826,-3.8887,-3.8947,-3.8968,-3.9054,-3.9088,-3.9154,-3.9239,-3.9343,-3.9411,-3.951,-3.9672,-3.9697,-3.9742,-3.9756,-3.9768,-3.9783,-3.9875,-3.9897,-3.9663,-3.9663,-3.9663,0,0,-3.8517,-3.8589,-3.8649,-3.8792,-3.8856,-3.896,-3.8916,-3.9027,-3.9105,-3.9106,-3.9247,-3.9298,-3.9396,-3.9551,-3.9622,-3.9597,-3.9853,-3.9781,-3.9789,-3.9799,-3.9888,-3.991,-3.993,-3.967,-3.9669,-3.9668,0,0,-3.8659,-3.8722,-3.8836,-3.8903,-3.9001,-3.9042,-3.9069,-3.9168,-3.9202,-3.9344,-3.9348,-3.9441,-3.9618,-3.9689,-3.9748,-3.9918,-3.9916,-3.9949,-4.0024,-4.0113,-4.0132,-4.0148,-4.0212,-4.0233,-3.9964,-3.9964,-3.9964,0,-3.8708,-3.8862,-3.8895,-3.9007,-3.9071,-3.9075,-3.9193,-3.9256,-3.9383,-3.9428,-3.9398,-3.9622,-3.9687,-3.986,-3.9901,-3.9948,-3.9983,-3.9938,-4.0126,-4.0143,-4.0159,-4.022,-4.0243,-3.9968,-3.9967,-3.9967,-3.9967,0,-3.8919,-3.9026,-3.9107,-3.9228,-3.9301,-3.9415,-3.9468,-3.9538,-3.9552,-3.9596,-3.9742,-3.9821,-3.9939,-3.9981,-3.9996,-4.0156,-4.0138,-4.0117,-4.0063,-4.0184,-4.0242,-4.0266,-3.9973,-3.9971,-3.997,-3.997,0,0,-3.9082,-3.922,-3.925,-3.9306,-3.9416,-3.95,-3.9616,-3.9729,-3.979,-3.9877,-3.9977,-4.0127,-4.0108,-4.0175,-4.0198,-4.0276,-4.0409,-4.0246,-4.0249,-4.0276,-4.0595,-4.0612,-4.0638,-4.0408,-4.0413,-4.0416,-4.0587,0,-3.9237,-3.944,-3.9474,-3.9654,-3.9755,-3.976,-3.9861,-3.9941,-3.9986,-4.0079,-4.0129,-4.0236,-4.0202,-4.0243,-4.032,-4.0377,-4.0474,-4.0365,-4.0504,-4.0508,-4.0481,-4.0668,-4.0686,-4.0844,-4.061,-4.0614,-4.0616,0,-3.9446,-3.9538,-3.9727,-3.9825,-3.9869,-3.9959,-4.0067,-4.0155,-4.0247,-4.0274,-4.0349,-4.0363,-4.0486,-4.0425,-4.0596,-4.0521,-4.058,-4.0616,-4.0623,-4.064,-4.0571,-4.0692,-4.0894,-4.0919,-4.0652,-4.0649,-4.0647,0,-3.9549,-3.9721,-3.9857,-3.9904,-4.0021,-4.0085,-4.0137,-4.0223,-4.029,-4.0385,-4.0429,-4.0537,-4.0597,-4.0681,-4.0726,-4.0677,-4.0894,-4.0837,-4.0923,-4.0922,-4.097,-4.0967,-4.1187,-4.1004,-4.1003,-4.1003,-4.1002,0,-3.972,-3.9837,-3.9905,-3.9989,-4.012,-4.0158,-4.0288,-4.0338,-4.0416,-4.0512,-4.0523,-4.0613,-4.0664,-4.0762,-4.0797,-4.0935,-4.0961,-4.0988,-4.0997,-4.0989,-4.0986,-4.103,-4.1021,-4.1009,-4.1008,-4.1006,-4.1005,0,-3.9859,-3.9908,-4.0057,-4.0156,-4.0183,-4.0276,-4.0361,-4.0444,-4.0488,-4.0609,-4.064,-4.0711,-4.0827,-4.0878,-4.1022,-4.1045,-4.1203,-4.1202,-4.1172,-4.1176,-4.126,-4.1252,-4.1518,-4.1557,-4.1345,-4.1347,-4.1348,0,-3.9966,-4.0055,-4.0163,-4.0227,-4.0281,-4.0384,-4.0452,-4.0494,-4.0565,-4.0677,-4.0747,-4.0863,-4.0958,-4.1144,-4.1209,-4.1319,-4.1323,-4.1409,-4.134,-4.133,-4.1328,-4.1323,-4.1333,-4.1422,-4.1424,-4.1426,-4.1427,0,-4.0152,-4.0172,-4.0269,-4.0376,-4.0457,-4.0543,-4.0628,-4.068,-4.0736,-4.0815,-4.0934,-4.1008,-4.1154,-4.127,-4.1385,-4.144,-4.1445,-4.1448,-4.1474,-4.1468,-4.1448,-4.1463,-4.1209,-4.1442,-4.1441,-4.144,-4.1439,-4.1438,-4.028,-4.0361,-4.045,-4.0558,-4.0626,-4.0705,-4.0788,-4.0843,-4.0942,-4.1064,-4.1083,-4.121,-4.1301,-4.1455,-4.1515,-4.1616,-4.1596,-4.1633,-4.1643,-4.1652,-4.1659,-4.143,-4.1637,-4.1637,-4.1636,-4.1636,-4.1636,0,-4.0469,-4.0526,-4.0626,-4.0743,-4.083,-4.0824,-4.0918,-4.0991,-4.1102,-4.1186,-4.1279,-4.1417,-4.153,-4.1604,-4.1719,-4.1786,-4.1791,-4.1815,-4.1812,-4.1825,-4.1669,-4.1636,-4.1809,-4.1809,-4.1809,-4.1809,-4.1809,-4.1809,-4.0577,-4.0715,-4.0746,-4.0918,-4.0975,-4.1099,-4.1153,-4.1227,-4.1294,-4.1447,-4.1541,-4.1587,-4.1669,-4.1789,-4.1894,-4.1913,-4.1956,-4.1982,-4.2,-4.1853,-4.1836,-4.1818,-4.1788,-4.199,-4.199,-4.2148,-4.2149,-4.215]}]]